WGS 10 (USA 291)

Last updated on Thu Aug 13 2026 00:03:01 GMT+0000 (Coordinated Universal Time)

1 44071U 19014A 26224.59079363 .00000029 00000+0 00000+0 0 9998 2 44071 0.0126 96.2140 0000337 188.6036 309.1784 1.00272505 27186
UTC large
Height (km)
Speed (km/s)
/
Latitude / Longitude
Inclination (degrees)
Orbital Period (minutes)
Azimuth
Elevation
Range (km)
Doppler Factor

Next 0 passes for location: London (51.5072 / 0.1276)

No passes found over London.
WGS 10 (USA 291)